| time (UTC) | temp C | wind direction | speed KPH | gust KPH | rain 1hr cm | rain 24hr cm | rain mn cm | humidity % | barometer mb |
| 20260506231904 | 11 | 5 | 6.4 | 14.5 | 0.00 | 1.02 | 1.02 | 91 | 1005.3 |
| 20260506231404 | 11 | 8 | 8.0 | 14.5 | 0.00 | 1.02 | 1.02 | 90 | 1005.3 |
| 20260506230903 | 11 | 8 | 8.0 | 12.9 | 0.00 | 1.02 | 1.02 | 90 | 1005.3 |
| 20260506230403 | 12 | 39 | 8.0 | 14.5 | 0.00 | 1.02 | 1.02 | 90 | 1005.1 |
| 20260506225904 | 12 | 17 | 9.7 | 20.9 | 0.00 | 1.02 | 1.02 | 89 | 1004.9 |
| 20260506225404 | 13 | 4 | 9.7 | 29.0 | 0.00 | 1.02 | 1.02 | 88 | 1004.8 |
| 20260506224904 | 15 | 358 | 11.3 | 22.5 | 0.00 | 1.02 | 1.02 | 90 | 1004.5 |
| 20260506224403 | 15 | 344 | 16.1 | 22.5 | 0.00 | 1.02 | 1.02 | 90 | 1004.4 |
| 20260506223904 | 15 | 357 | 11.3 | 19.3 | 0.00 | 1.02 | 1.02 | 90 | 1004.3 |
| 20260506223404 | 15 | 352 | 9.7 | 19.3 | 0.00 | 1.02 | 1.02 | 90 | 1004.1 |
| 20260506222404 | 15 | 351 | 11.3 | 25.7 | 0.00 | 1.02 | 1.02 | 90 | 1004.0 |
| 20260506221403 | 15 | 349 | 9.7 | 16.1 | 0.00 | 1.02 | 1.02 | 90 | 1003.9 |
| 20260506220905 | 15 | 345 | 4.8 | 11.3 | 0.00 | 1.02 | 1.02 | 90 | 1003.8 |
| 20260506220404 | 15 | 322 | 8.0 | 14.5 | 0.00 | 1.02 | 1.02 | 90 | 1003.7 |
| 20260506214904 | 15 | 347 | 9.7 | 14.5 | 0.00 | 1.02 | 1.02 | 90 | 1003.5 |
| 20260506213403 | 15 | 311 | 8.0 | 14.5 | 0.00 | 1.02 | 1.02 | 90 | 1003.4 |
| 20260506212903 | 16 | 344 | 9.7 | 14.5 | 0.00 | 1.02 | 1.02 | 90 | 1003.4 |
| 20260506212404 | 15 | 263 | 6.4 | 12.9 | 0.00 | 1.02 | 1.02 | 90 | 1003.3 |
| 20260506211904 | 15 | 277 | 8.0 | 14.5 | 0.00 | 1.02 | 1.02 | 89 | 1003.3 |
| 20260506211404 | 15 | 289 | 4.8 | 11.3 | 0.00 | 1.02 | 1.02 | 90 | 1003.0 |
| 20260506210903 | 15 | 342 | 8.0 | 14.5 | 0.00 | 1.02 | 1.02 | 90 | 1003.1 |
| 20260506210404 | 15 | 330 | 8.0 | 14.5 | 0.00 | 1.02 | 1.02 | 90 | 1003.0 |
| 20260506205904 | 15 | 317 | 8.0 | 12.9 | 0.00 | 1.02 | 1.02 | 90 | 1003.0 |
| 20260506205403 | 15 | 330 | 9.7 | 19.3 | 0.00 | 1.02 | 1.02 | 90 | 1003.0 |
| 20260506204903 | 15 | 350 | 12.9 | 20.9 | 0.00 | 1.02 | 1.02 | 90 | 1003.0 |
| 20260506204404 | 15 | 0 | 6.4 | 12.9 | 0.00 | 1.02 | 1.02 | 90 | 1003.0 |
| 20260506203904 | 15 | 339 | 6.4 | 14.5 | 0.00 | 1.02 | 1.02 | 90 | 1002.9 |
| 20260506203404 | 15 | 263 | 8.0 | 16.1 | 0.00 | 1.02 | 1.02 | 90 | 1002.9 |
| 20260506202903 | 15 | 285 | 8.0 | 14.5 | 0.00 | 1.02 | 1.02 | 90 | 1002.8 |
| 20260506202404 | 15 | 263 | 6.4 | 19.3 | 0.00 | 1.02 | 1.02 | 90 | 1002.9 |
| 20260506201904 | 15 | 323 | 8.0 | 12.9 | 0.00 | 1.02 | 1.02 | 90 | 1002.8 |
| 20260506200903 | 15 | 342 | 4.8 | 11.3 | 0.00 | 1.02 | 1.02 | 90 | 1002.8 |
| 20260506200403 | 15 | 342 | 8.0 | 14.5 | 0.00 | 1.02 | 1.02 | 90 | 1002.8 |
| 20260506195904 | 15 | 298 | 6.4 | 19.3 | 0.00 | 1.02 | 1.02 | 90 | 1002.9 |
| 20260506195404 | 15 | 254 | 9.7 | 20.9 | 0.00 | 1.02 | 1.02 | 90 | 1002.9 |
| 20260506194904 | 15 | 254 | 9.7 | 20.9 | 0.00 | 1.02 | 1.02 | 89 | 1003.0 |
| 20260506194403 | 15 | 275 | 8.0 | 19.3 | 0.00 | 1.02 | 1.02 | 89 | 1003.0 |
| 20260506193404 | 15 | 251 | 6.4 | 19.3 | 0.00 | 1.02 | 1.02 | 88 | 1003.0 |
| 20260506192406 | 15 | 279 | 9.7 | 19.3 | 0.00 | 1.02 | 1.02 | 87 | 1003.2 |
| 20260506190905 | 15 | 230 | 9.7 | 22.5 | 0.00 | 1.02 | 1.02 | 87 | 1003.1 |
| 20260506190405 | 15 | 262 | 4.8 | 16.1 | 0.00 | 1.02 | 1.02 | 87 | 1003.0 |
| 20260506185905 | 14 | 226 | 9.7 | 19.3 | 0.00 | 1.02 | 1.02 | 87 | 1003.1 |
| 20260506185406 | 14 | 222 | 8.0 | 14.5 | 0.00 | 1.02 | 1.02 | 87 | 1003.0 |
| 20260506184905 | 14 | 221 | 8.0 | 19.3 | 0.00 | 1.02 | 1.02 | 87 | 1003.1 |
| 20260506183905 | 14 | 219 | 8.0 | 20.9 | 0.03 | 1.02 | 1.02 | 87 | 1003.0 |
| 20260506183405 | 14 | 209 | 9.7 | 19.3 | 0.03 | 1.02 | 1.02 | 87 | 1003.2 |
| 20260506182906 | 14 | 214 | 9.7 | 19.3 | 0.05 | 1.02 | 1.02 | 87 | 1003.3 |
| 20260506182405 | 14 | 243 | 9.7 | 19.3 | 0.05 | 1.02 | 1.02 | 87 | 1003.3 |
| 20260506181905 | 13 | 226 | 9.7 | 22.5 | 0.08 | 1.02 | 1.02 | 87 | 1003.4 |
| 20260506181405 | 13 | 228 | 12.9 | 20.9 | 0.10 | 1.02 | 1.02 | 87 | 1003.4 |
| 20260506180906 | 13 | 218 | 9.7 | 19.3 | 0.10 | 1.02 | 1.02 | 87 | 1003.4 |
| 20260506180405 | 13 | 220 | 8.0 | 19.3 | 0.13 | 1.02 | 1.02 | 87 | 1003.4 |
| 20260506175905 | 13 | 204 | 8.0 | 22.5 | 0.15 | 1.02 | 1.02 | 88 | 1003.4 |
| 20260506174405 | 13 | 281 | 8.0 | 14.5 | 0.15 | 0.99 | 0.99 | 88 | 1003.5 |
| 20260506173406 | 13 | 208 | 8.0 | 16.1 | 0.20 | 0.99 | 0.99 | 88 | 1003.3 |
| 20260506172905 | 13 | 211 | 9.7 | 16.1 | 0.20 | 0.97 | 0.97 | 88 | 1003.4 |
| 20260506172405 | 13 | 206 | 9.7 | 20.9 | 0.20 | 0.97 | 0.97 | 88 | 1003.4 |
| 20260506171905 | 13 | 235 | 9.7 | 19.3 | 0.18 | 0.94 | 0.94 | 88 | 1003.5 |
| 20260506171405 | 13 | 214 | 9.7 | 20.9 | 0.15 | 0.91 | 0.91 | 88 | 1003.5 |
| 20260506170905 | 13 | 212 | 11.3 | 19.3 | 0.18 | 0.91 | 0.91 | 88 | 1003.6 |
| 20260506170405 | 13 | 219 | 9.7 | 16.1 | 0.15 | 0.89 | 0.89 | 88 | 1003.6 |
| 20260506165406 | 13 | 217 | 11.3 | 25.7 | 0.13 | 0.86 | 0.86 | 88 | 1003.3 |
| 20260506164405 | 13 | 212 | 9.7 | 29.0 | 0.13 | 0.84 | 0.84 | 88 | 1003.2 |
| 20260506163905 | 13 | 211 | 9.7 | 19.3 | 0.13 | 0.84 | 0.84 | 88 | 1003.3 |
| 20260506163406 | 13 | 221 | 9.7 | 19.3 | 0.10 | 0.79 | 0.79 | 88 | 1003.3 |
| 20260506162905 | 13 | 211 | 16.1 | 29.0 | 0.10 | 0.76 | 0.76 | 88 | 1003.4 |
| 20260506162405 | 13 | 220 | 12.9 | 27.4 | 0.10 | 0.76 | 0.76 | 88 | 1003.4 |
| 20260506161405 | 13 | 210 | 11.3 | 27.4 | 0.18 | 0.76 | 0.76 | 88 | 1003.3 |
| 20260506160905 | 13 | 193 | 11.3 | 27.4 | 0.18 | 0.74 | 0.74 | 88 | 1003.1 |
| 20260506160406 | 13 | 209 | 11.3 | 27.4 | 0.23 | 0.74 | 0.74 | 89 | 1003.2 |
| 20260506155905 | 13 | 211 | 17.7 | 29.0 | 0.25 | 0.74 | 0.74 | 89 | 1003.1 |
| 20260506154905 | 13 | 196 | 11.3 | 24.1 | 0.33 | 0.74 | 0.74 | 89 | 1003.3 |
| 20260506154405 | 13 | 209 | 11.3 | 22.5 | 0.33 | 0.71 | 0.71 | 89 | 1003.2 |
| 20260506153905 | 13 | 204 | 11.3 | 20.9 | 0.36 | 0.71 | 0.71 | 89 | 1003.5 |
| 20260506153405 | 13 | 206 | 12.9 | 22.5 | 0.36 | 0.69 | 0.69 | 89 | 1003.5 |
| 20260506152404 | 13 | 201 | 11.3 | 25.7 | 0.33 | 0.66 | 0.66 | 89 | 1003.6 |
| 20260506151905 | 13 | 207 | 11.3 | 22.5 | 0.30 | 0.61 | 0.61 | 89 | 1003.6 |
| 20260506151405 | 13 | 207 | 14.5 | 29.0 | 0.28 | 0.58 | 0.58 | 89 | 1003.7 |
| 20260506150405 | 13 | 215 | 14.5 | 25.7 | 0.23 | 0.51 | 0.51 | 89 | 1003.9 |
| 20260506145905 | 13 | 218 | 14.5 | 22.5 | 0.23 | 0.48 | 0.48 | 89 | 1003.7 |
| 20260506145405 | 13 | 209 | 14.5 | 25.7 | 0.20 | 0.46 | 0.46 | 89 | 1003.5 |
| 20260506144905 | 13 | 210 | 11.3 | 24.1 | 0.18 | 0.41 | 0.41 | 89 | 1003.4 |
| 20260506144405 | 13 | 210 | 16.1 | 25.7 | 0.15 | 0.38 | 0.38 | 89 | 1003.3 |
| 20260506143905 | 13 | 197 | 12.9 | 25.7 | 0.15 | 0.36 | 0.36 | 90 | 1003.6 |
| 20260506143405 | 13 | 208 | 12.9 | 19.3 | 0.13 | 0.33 | 0.33 | 90 | 1003.4 |
| 20260506142405 | 13 | 196 | 9.7 | 20.9 | 0.18 | 0.33 | 0.33 | 90 | 1003.2 |
| 20260506141905 | 13 | 207 | 11.3 | 19.3 | 0.15 | 0.30 | 0.30 | 90 | 1003.4 |
| 20260506141405 | 13 | 214 | 12.9 | 22.5 | 0.18 | 0.30 | 0.30 | 90 | 1003.5 |
| 20260506140905 | 13 | 235 | 9.7 | 22.5 | 0.18 | 0.28 | 0.28 | 90 | 1003.4 |
| 20260506140405 | 13 | 215 | 11.3 | 22.5 | 0.20 | 0.28 | 0.28 | 90 | 1003.9 |
| 20260506135905 | 13 | 215 | 12.9 | 24.1 | 0.20 | 0.25 | 0.25 | 90 | 1003.6 |
| 20260506135405 | 13 | 206 | 12.9 | 19.3 | 0.23 | 0.25 | 0.25 | 90 | 1003.9 |
| 20260506133905 | 13 | 213 | 11.3 | 19.3 | 0.18 | 0.20 | 0.20 | 90 | 1003.9 |
| 20260506133405 | 13 | 206 | 11.3 | 24.1 | 0.20 | 0.20 | 0.20 | 90 | 1004.1 |
| 20260506132905 | 13 | 206 | 8.0 | 12.9 | 0.18 | 0.18 | 0.18 | 90 | 1004.2 |
| 20260506132405 | 13 | 203 | 8.0 | 11.3 | 0.15 | 0.15 | 0.15 | 90 | 1004.2 |
| 20260506131905 | 13 | 216 | 8.0 | 12.9 | 0.15 | 0.15 | 0.15 | 90 | 1004.3 |
| 20260506131405 | 13 | 210 | 9.7 | 19.3 | 0.13 | 0.13 | 0.13 | 90 | 1004.3 |
| 20260506130905 | 13 | 213 | 9.7 | 14.5 | 0.10 | 0.10 | 0.10 | 90 | 1004.4 |
| 20260506130405 | 13 | 226 | 12.9 | 20.9 | 0.08 | 0.08 | 0.08 | 90 | 1004.4 |
| 20260506125905 | 13 | 221 | 9.7 | 19.3 | 0.05 | 0.05 | 0.05 | 89 | 1004.4 |
| 20260506124405 | 14 | 214 | 11.3 | 27.4 | 0.03 | 0.03 | 0.03 | 89 | 1004.4 |
| 20260506123905 | 14 | 214 | 11.3 | 19.3 | 0.03 | 0.03 | 0.03 | 89 | 1004.4 |
| 20260506123404 | 14 | 213 | 12.9 | 19.3 | 0.00 | 0.00 | 0.00 | 88 | 1004.4 |
| 20260506122905 | 14 | 212 | 9.7 | 19.3 | 0.00 | 0.00 | 0.00 | 88 | 1004.4 |
| 20260506120905 | 15 | 212 | 11.3 | 20.9 | 0.00 | 0.00 | 0.00 | 86 | 1004.1 |
| 20260506120404 | 15 | 209 | 14.5 | 22.5 | 0.00 | 0.00 | 0.00 | 86 | 1004.0 |
| 20260506115905 | 15 | 196 | 11.3 | 20.9 | 0.00 | 0.00 | 0.00 | 86 | 1004.0 |
| 20260506115405 | 15 | 202 | 12.9 | 22.5 | 0.00 | 0.00 | 0.00 | 85 | 1003.9 |
| 20260506114905 | 15 | 203 | 11.3 | 22.5 | 0.00 | 0.00 | 0.00 | 85 | 1003.9 |
| 20260506114405 | 15 | 207 | 14.5 | 29.0 | 0.00 | 0.00 | 0.00 | 84 | 1003.9 |
| 20260506113905 | 15 | 192 | 14.5 | 29.0 | 0.00 | 0.00 | 0.00 | 84 | 1003.8 |
| 20260506113404 | 15 | 191 | 11.3 | 24.1 | 0.00 | 0.00 | 0.00 | 84 | 1003.8 |
| 20260506112905 | 15 | 193 | 12.9 | 24.1 | 0.00 | 0.00 | 0.00 | 83 | 1003.8 |
| 20260506112405 | 15 | 205 | 11.3 | 29.0 | 0.00 | 0.00 | 0.00 | 83 | 1003.8 |
| 20260506111405 | 15 | 187 | 12.9 | 22.5 | 0.00 | 0.00 | 0.00 | 82 | 1003.9 |
| 20260506110905 | 15 | 214 | 14.5 | 27.4 | 0.00 | 0.00 | 0.00 | 82 | 1003.9 |
| 20260506110405 | 15 | 196 | 11.3 | 24.1 | 0.00 | 0.00 | 0.00 | 81 | 1003.8 |
| 20260506105905 | 15 | 211 | 11.3 | 27.4 | 0.00 | 0.00 | 0.00 | 80 | 1003.8 |
| 20260506105404 | 15 | 199 | 9.7 | 20.9 | 0.00 | 0.00 | 0.00 | 80 | 1003.6 |
| 20260506104905 | 16 | 199 | 9.7 | 20.9 | 0.00 | 0.00 | 0.00 | 80 | 1003.6 |
| 20260506104405 | 16 | 194 | 11.3 | 19.3 | 0.00 | 0.00 | 0.00 | 79 | 1003.6 |
| 20260506103904 | 16 | 192 | 8.0 | 19.3 | 0.00 | 0.00 | 0.00 | 79 | 1003.5 |
| 20260506103404 | 16 | 200 | 9.7 | 19.3 | 0.00 | 0.00 | 0.00 | 78 | 1003.3 |
| 20260506102405 | 16 | 199 | 9.7 | 14.5 | 0.00 | 0.00 | 0.00 | 77 | 1003.3 |
| 20260506101904 | 16 | 186 | 8.0 | 12.9 | 0.00 | 0.00 | 0.00 | 77 | 1003.1 |
| 20260506100905 | 16 | 188 | 6.4 | 14.5 | 0.00 | 0.00 | 0.00 | 76 | 1003.3 |
| 20260506100406 | 16 | 190 | 9.7 | 19.3 | 0.00 | 0.00 | 0.00 | 75 | 1003.3 |
| 20260506095905 | 16 | 196 | 8.0 | 14.5 | 0.00 | 0.00 | 0.00 | 75 | 1003.3 |
| 20260506095404 | 16 | 194 | 8.0 | 14.5 | 0.00 | 0.00 | 0.00 | 74 | 1003.3 |
| 20260506094405 | 16 | 200 | 9.7 | 12.9 | 0.00 | 0.00 | 0.00 | 73 | 1003.6 |
| 20260506093905 | 16 | 196 | 9.7 | 19.3 | 0.00 | 0.00 | 0.00 | 73 | 1003.6 |
| 20260506092905 | 16 | 205 | 9.7 | 16.1 | 0.00 | 0.00 | 0.00 | 73 | 1003.7 |
| 20260506092405 | 16 | 203 | 9.7 | 14.5 | 0.00 | 0.00 | 0.00 | 72 | 1003.7 |
| 20260506091904 | 16 | 200 | 9.7 | 16.1 | 0.00 | 0.00 | 0.00 | 72 | 1003.8 |
| 20260506090905 | 16 | 204 | 9.7 | 19.3 | 0.00 | 0.00 | 0.00 | 72 | 1003.8 |
| 20260506090405 | 16 | 196 | 8.0 | 14.5 | 0.00 | 0.00 | 0.00 | 71 | 1003.7 |
| 20260506085905 | 16 | 191 | 9.7 | 19.3 | 0.00 | 0.00 | 0.00 | 71 | 1003.8 |
| 20260506085405 | 16 | 194 | 9.7 | 19.3 | 0.00 | 0.00 | 0.00 | 70 | 1003.8 |
| 20260506084904 | 16 | 200 | 9.7 | 20.9 | 0.00 | 0.00 | 0.00 | 70 | 1003.9 |
| 20260506084404 | 16 | 198 | 11.3 | 19.3 | 0.00 | 0.00 | 0.00 | 70 | 1003.8 |
| 20260506083904 | 16 | 187 | 11.3 | 20.9 | 0.00 | 0.00 | 0.00 | 70 | 1003.6 |
| 20260506083404 | 16 | 189 | 9.7 | 19.3 | 0.00 | 0.00 | 0.00 | 70 | 1003.8 |
| 20260506082905 | 16 | 210 | 9.7 | 20.9 | 0.00 | 0.00 | 0.00 | 69 | 1003.6 |
| 20260506082405 | 16 | 190 | 9.7 | 20.9 | 0.00 | 0.00 | 0.00 | 69 | 1003.8 |
| 20260506081905 | 16 | 209 | 9.7 | 22.5 | 0.00 | 0.00 | 0.00 | 69 | 1003.9 |
| 20260506081404 | 16 | 200 | 11.3 | 22.5 | 0.00 | 0.00 | 0.00 | 68 | 1003.9 |
| 20260506080905 | 17 | 208 | 9.7 | 19.3 | 0.00 | 0.00 | 0.00 | 68 | 1003.9 |
| 20260506080404 | 17 | 204 | 9.7 | 25.7 | 0.00 | 0.00 | 0.00 | 67 | 1003.7 |
| 20260506073404 | 17 | 202 | 9.7 | 20.9 | 0.00 | 0.05 | 0.00 | 65 | 1003.9 |
| 20260506072904 | 17 | 204 | 9.7 | 19.3 | 0.00 | 0.05 | 0.00 | 65 | 1004.0 |
| 20260506072405 | 17 | 213 | 11.3 | 19.3 | 0.00 | 0.05 | 0.00 | 65 | 1004.2 |
| 20260506071905 | 17 | 206 | 9.7 | 19.3 | 0.00 | 0.05 | 0.00 | 65 | 1004.3 |
| 20260506071405 | 17 | 208 | 11.3 | 19.3 | 0.00 | 0.05 | 0.00 | 65 | 1004.2 |
| 20260506070905 | 17 | 212 | 9.7 | 19.3 | 0.00 | 0.05 | 0.00 | 64 | 1004.3 |
| 20260506070405 | 17 | 192 | 11.3 | 19.3 | 0.00 | 0.05 | 0.00 | 64 | 1004.3 |
| 20260506062404 | 17 | 219 | 12.9 | 19.3 | 0.00 | 0.05 | 0.00 | 63 | 1004.8 |
| 20260506061905 | 17 | 212 | 14.5 | 20.9 | 0.00 | 0.05 | 0.00 | 63 | 1004.8 |
| 20260506061405 | 17 | 213 | 14.5 | 22.5 | 0.00 | 0.05 | 0.00 | 63 | 1004.9 |
| 20260506060905 | 17 | 212 | 11.3 | 20.9 | 0.00 | 0.05 | 0.00 | 63 | 1004.8 |
| 20260506060404 | 17 | 203 | 14.5 | 20.9 | 0.00 | 0.05 | 0.00 | 63 | 1004.9 |
| 20260506051404 | 17 | 212 | 12.9 | 20.9 | 0.00 | 0.05 | 0.00 | 60 | 1005.4 |
| 20260506050904 | 17 | 213 | 11.3 | 22.5 | 0.00 | 0.05 | 0.00 | 60 | 1005.4 |
| 20260506044904 | 17 | 214 | 12.9 | 25.7 | 0.00 | 0.05 | 0.00 | 59 | 1005.4 |
| 20260506044404 | 17 | 201 | 9.7 | 24.1 | 0.00 | 0.05 | 0.00 | 60 | 1005.4 |
| 20260506043904 | 17 | 211 | 11.3 | 22.5 | 0.00 | 0.05 | 0.00 | 59 | 1005.3 |
| 20260506042905 | 17 | 200 | 11.3 | 19.3 | 0.00 | 0.05 | 0.00 | 59 | 1005.4 |
| 20260506042405 | 17 | 203 | 8.0 | 12.9 | 0.00 | 0.05 | 0.00 | 59 | 1005.4 |
| 20260506041905 | 18 | 207 | 9.7 | 14.5 | 0.00 | 0.05 | 0.00 | 59 | 1005.4 |
| 20260506041405 | 18 | 204 | 8.0 | 20.9 | 0.00 | 0.05 | 0.00 | 59 | 1005.6 |
| 20260506040904 | 18 | 202 | 9.7 | 14.5 | 0.00 | 0.05 | 0.00 | 59 | 1005.5 |
| 20260506035904 | 18 | 207 | 11.3 | 20.9 | 0.00 | 0.05 | 0.05 | 58 | 1005.4 |
| 20260506035404 | 18 | 206 | 9.7 | 19.3 | 0.00 | 0.05 | 0.05 | 58 | 1005.5 |
| 20260506034404 | 18 | 212 | 9.7 | 19.3 | 0.00 | 0.05 | 0.05 | 58 | 1005.5 |
| 20260506033904 | 18 | 207 | 11.3 | 19.3 | 0.00 | 0.05 | 0.05 | 58 | 1005.4 |
| 20260506033404 | 18 | 205 | 9.7 | 19.3 | 0.00 | 0.05 | 0.05 | 58 | 1005.4 |
| 20260506032904 | 18 | 204 | 9.7 | 16.1 | 0.00 | 0.05 | 0.05 | 58 | 1005.4 |
| 20260506032404 | 18 | 217 | 8.0 | 14.5 | 0.00 | 0.05 | 0.05 | 58 | 1005.4 |
| 20260506031405 | 18 | 209 | 6.4 | 12.9 | 0.00 | 0.05 | 0.05 | 58 | 1005.4 |
| 20260506030904 | 18 | 208 | 9.7 | 16.1 | 0.00 | 0.05 | 0.05 | 58 | 1005.5 |
| 20260506030405 | 19 | 198 | 8.0 | 14.5 | 0.00 | 0.05 | 0.05 | 58 | 1005.4 |
| 20260506025904 | 19 | 214 | 11.3 | 19.3 | 0.00 | 0.05 | 0.05 | 58 | 1005.5 |
| 20260506025404 | 19 | 210 | 9.7 | 19.3 | 0.00 | 0.05 | 0.05 | 57 | 1005.4 |
| 20260506024404 | 19 | 208 | 9.7 | 19.3 | 0.00 | 0.05 | 0.05 | 57 | 1005.6 |
| 20260506023905 | 19 | 214 | 9.7 | 19.3 | 0.00 | 0.05 | 0.05 | 57 | 1005.6 |
| 20260506023404 | 19 | 211 | 11.3 | 16.1 | 0.00 | 0.05 | 0.05 | 57 | 1005.6 |
| 20260506022405 | 19 | 215 | 8.0 | 14.5 | 0.00 | 0.05 | 0.05 | 58 | 1005.6 |
| 20260506021904 | 20 | 219 | 8.0 | 14.5 | 0.00 | 0.05 | 0.05 | 58 | 1005.6 |
| 20260506021404 | 20 | 204 | 9.7 | 14.5 | 0.00 | 0.05 | 0.05 | 57 | 1005.6 |
| 20260506020404 | 20 | 206 | 8.0 | 14.5 | 0.00 | 0.05 | 0.05 | 57 | 1005.7 |
| 20260506015904 | 20 | 204 | 8.0 | 12.9 | 0.00 | 0.05 | 0.05 | 57 | 1005.7 |
| 20260506014904 | 20 | 215 | 6.4 | 11.3 | 0.00 | 0.05 | 0.05 | 57 | 1005.6 |
| 20260506013904 | 20 | 209 | 8.0 | 12.9 | 0.00 | 0.05 | 0.05 | 56 | 1005.6 |
| 20260506013404 | 20 | 207 | 8.0 | 14.5 | 0.00 | 0.05 | 0.05 | 56 | 1005.6 |
| 20260506012904 | 20 | 221 | 8.0 | 19.3 | 0.00 | 0.05 | 0.05 | 56 | 1005.6 |
| 20260506012405 | 20 | 206 | 8.0 | 19.3 | 0.00 | 0.05 | 0.05 | 55 | 1005.5 |
| 20260506011404 | 21 | 207 | 8.0 | 19.3 | 0.00 | 0.05 | 0.05 | 55 | 1005.4 |
| 20260506010904 | 21 | 217 | 11.3 | 19.3 | 0.00 | 0.05 | 0.05 | 54 | 1005.4 |
| 20260506010404 | 21 | 212 | 11.3 | 24.1 | 0.00 | 0.05 | 0.05 | 54 | 1005.3 |
| 20260506005904 | 21 | 211 | 9.7 | 20.9 | 0.00 | 0.05 | 0.05 | 54 | 1005.3 |
| 20260506005405 | 21 | 204 | 9.7 | 19.3 | 0.00 | 0.05 | 0.05 | 53 | 1005.2 |
| 20260506004403 | 21 | 215 | 8.0 | 22.5 | 0.00 | 0.05 | 0.05 | 52 | 1005.0 |
| 20260506003904 | 21 | 218 | 9.7 | 19.3 | 0.00 | 0.05 | 0.05 | 50 | 1004.9 |
| 20260506003404 | 21 | 206 | 9.7 | 20.9 | 0.00 | 0.05 | 0.05 | 50 | 1004.8 |
| 20260506002904 | 22 | 210 | 12.9 | 22.5 | 0.00 | 0.05 | 0.05 | 50 | 1004.8 |
| 20260506002404 | 22 | 210 | 11.3 | 19.3 | 0.00 | 0.05 | 0.05 | 50 | 1004.7 |
| 20260506001904 | 22 | 202 | 12.9 | 20.9 | 0.00 | 0.05 | 0.05 | 50 | 1004.7 |
| 20260506001404 | 22 | 207 | 11.3 | 22.5 | 0.00 | 0.05 | 0.05 | 50 | 1004.5 |
| 20260506000904 | 22 | 209 | 14.5 | 22.5 | 0.00 | 0.05 | 0.05 | 49 | 1004.5 |
| 20260506000404 | 22 | 205 | 12.9 | 20.9 | 0.00 | 0.05 | 0.05 | 49 | 1004.4 |
| 20260505235904 | 22 | 207 | 12.9 | 25.7 | 0.00 | 0.05 | 0.05 | 49 | 1004.4 |
| 20260505235404 | 22 | 208 | 11.3 | 19.3 | 0.00 | 0.05 | 0.05 | 49 | 1004.3 |
| 20260505234904 | 22 | 199 | 14.5 | 25.7 | 0.00 | 0.05 | 0.05 | 49 | 1004.4 |
| 20260505234403 | 22 | 210 | 16.1 | 29.0 | 0.00 | 0.05 | 0.05 | 49 | 1004.3 |
| 20260505233905 | 22 | 213 | 12.9 | 22.5 | 0.00 | 0.05 | 0.05 | 49 | 1004.4 |
| 20260505232904 | 22 | 214 | 14.5 | 27.4 | 0.00 | 0.05 | 0.05 | 49 | 1004.3 |
| 20260505232404 | 22 | 222 | 14.5 | 25.7 | 0.00 | 0.05 | 0.05 | 48 | 1004.3 |